Location: Dover
(39.1580°N, 75.5250°W)
Time: 13:57:52
(UTC-04:00)

Daily predictions for brighter satellites

Satellite Brightness Start Highest point End
(mag) Time Altitude Azimuth Time Altitude Azimuth Time Altitude Azimuth
Cosmos 1315 Rocket 3.2 20:15:28 10° NNW 20:19:30 71° W 20:23:28 10° S
HJ-1C 4.0 20:17:24 10° S 20:20:48 64° W 20:24:14 10° NNW
Cosmos 2142 Rocket 4.5 20:17:19 10° S 20:23:23 71° E 20:29:32 10° NNE
ORS 1 (USA 231) 4.5 20:20:30 10° W 20:23:35 89° SSW 20:26:40 10° E
ALOS 3.2 20:19:57 10° S 20:24:29 53° W 20:29:04 10° NNW
OAO 3 Rocket 3.6 20:20:12 10° W 20:24:54 51° S 20:29:40 10° ESE
Cosmos 1933 4.0 20:25:45 10° SSE 20:29:22 33° E 20:33:01 10° NNE
Cosmos 1992 Rocket 4.0 20:25:55 10° S 20:31:04 66° ESE 20:36:17 10° NNE
Cosmos 2026 Rocket 4.0 20:27:44 10° N 20:33:56 68° E 20:40:01 10° SSE
Cosmos 1455 4.4 20:32:28 10° SW 20:35:51 31° WNW 20:39:14 10° NNW
Meteor 2-20 Rocket 4.4 20:32:24 10° N 20:38:33 79° E 20:44:42 10° S
Cosmos 1733 Rocket 3.3 20:35:26 10° N 20:39:49 54° E 20:44:10 10° SSE
USA 267 3.8 20:36:52 10° NE 20:43:19 63° NW 20:49:46 10° WSW
Helios 1A 3.2 20:39:36 10° SSE 20:43:44 54° ENE 20:47:53 10° N
Cosmos 1862 3.4 20:41:07 10° N 20:45:07 59° E 20:49:06 10° SSE
Cosmos 1862 Rocket 3.6 20:44:17 10° S 20:48:41 66° E 20:53:09 10° NNE
Spot 1 4.5 20:54:16 10° SSE 20:59:25 80° ENE 21:04:28 10° N
Cosmos 2263 Rocket 2.2 20:54:22 10° NNW 20:59:58 89° ENE 21:05:10 12° SSE
Spot 2 Rocket 4.5 20:57:04 10° S 21:01:58 48° W 21:06:53 10° NNW
Cosmos 968 Rocket 3.7 21:00:31 10° N 21:05:37 52° ENE 21:09:04 20° SE
USA 186 2.9 21:03:38 10° SSW 21:06:15 37° W 21:09:03 10° NNW
SAR-Lupe-4 3.5 21:03:04 12° SSE 21:06:20 85° W 21:09:56 10° NNW
Cosmos 1939 Rocket 2.9 21:03:23 16° SSE 21:06:31 64° ENE 21:10:28 10° N
Cosmos 1703 Rocket 4.0 21:06:20 16° SSE 21:09:26 40° E 21:13:35 10° NNE
Cosmos 2322 Rocket 3.7 21:05:26 10° SW 21:10:39 39° WNW 21:15:56 10° N
Cosmos 2237 4.4 21:05:29 10° S 21:10:55 47° ESE 21:16:23 10° NE
Atlas Centaur 2 3.2 21:08:49 10° WSW 21:14:55 42° S 21:19:23 22° ESE
USA 234 3.6 21:12:08 19° ESE 21:16:51 57° NE 21:23:14 10° NW
Cosmos 1825 4.0 21:14:39 10° NNW 21:18:03 31° W 21:21:26 10° SSW
Cosmos 2360 Rocket 2.2 21:12:30 10° SSW 21:18:09 88° WNW 21:23:51 10° NNE
SJ-11-01 4.2 21:15:14 15° SSE 21:19:10 87° WSW 21:23:52 10° NNW
COSMOS 2428 3.0 21:15:04 10° S 21:20:21 42° ESE 21:25:41 10° NE
Cosmos 1655 Rocket 4.5 21:15:25 10° NNW 21:21:43 63° W 21:27:57 10° S
Envisat 3.2 21:17:09 10° S 21:22:07 72° WSW 21:27:12 10° NNW
Cosmos 2266 Rocket 4.1 21:16:47 10° N 21:23:00 57° E 21:27:05 22° SSE
Meteor 1-29 3.6 21:19:55 10° N 21:23:21 58° WNW 21:26:43 10° SSW
CZ-4B DEB 3.3 21:22:32 22° S 21:24:17 53° W 21:27:16 10° NNW
Lacrosse 4 Rocket 3.8 21:23:29 10° WNW 21:26:45 21° WSW 21:30:02 10° SSW
Helios 1B rocket 3.5 21:23:07 10° N 21:27:04 47° WNW 21:30:59 10° SSW
Cosmos 1867 3.5 21:22:28 10° NNW 21:27:58 87° ENE 21:30:53 28° SSE
H-2A R/B 3.5 21:28:32 18° E 21:29:29 19° ENE 21:32:54 10° NNE
Milstar 3 3.9 21:24:21 10° WSW 21:30:57 28° SSW 21:33:52 21° SSE
ATLAS 5 CENTAUR R/B 2.5 21:25:33 10° NW 21:31:38 78° WSW 21:35:40 25° SSE
Cosmos 2221 Rocket 3.6 21:32:02 32° SSE 21:33:49 56° E 21:38:10 10° NNE
Cosmos 2322 3.9 21:30:11 10° SSW 21:35:53 74° WNW 21:41:37 10° NNE
SEDSat Delta rocket 4.3 21:31:54 10° WSW 21:36:35 35° S 21:37:59 30° SSE
Meteor 1-14 Rocket 4.2 21:31:52 10° N 21:37:36 74° E 21:40:44 28° SSE
Meteor 1-25 Rocket 4.4 21:33:12 10° N 21:38:39 53° ENE 21:40:41 35° SE
ARGOS 3.7 21:37:29 32° ESE 21:39:08 40° ENE 21:44:08 10° N
Cosmos 1606 4.4 21:42:02 21° ENE 21:42:02 21° ENE 21:43:50 10° NNE
ERS-1 Rocket 2.9 21:42:02 32° SSE 21:44:25 87° ENE 21:49:28 10° NNW
SeaSat 1 3.5 21:44:57 27° E 21:46:09 30° NE 21:50:27 10° N
Meteor 1-20 Rocket 4.3 21:42:49 10° N 21:48:21 58° ENE 21:50:10 40° SE
Centaur AC-42 4.5 21:40:43 10° WSW 21:50:26 18° SW 21:53:33 14° S
H-2A R/B 3.9 21:53:54 17° ENE 21:53:54 17° ENE 21:56:20 10° NNE
Cosmos 2237 Rocket 3.5 21:58:35 23° ENE 21:58:35 23° ENE 22:01:33 10° NE
Cosmos 2333 4.1 21:52:22 10° SSW 21:58:04 79° ESE 22:03:51 10° NNE
NOSS 3-1 (C) 3.3 21:54:38 19° S 21:58:41 58° ESE 22:04:50 10° NE
YAOGAN 6 3.5 21:58:12 35° SW 21:59:06 43° W 22:02:34 10° NNW
Cosmos 2333 Rocket 2.6 22:00:04 41° E 22:00:04 41° E 22:05:10 10° NE
SPOT 5 2.8 21:59:59 56° ESE 22:00:41 64° ENE 22:05:15 10° N
SL-08 RB Rocket 4.0 22:01:17 49° E 22:01:27 49° ENE 22:05:51 10° N
Cosmos 1844 Rocket 2.7 21:55:59 10° NNW 22:01:31 62° ENE 22:02:44 49° ESE
Cosmos 2278 Rocket 3.4 21:57:55 10° N 22:02:42 27° ENE 22:03:38 26° ENE
Meteor 2-6 Rocket 4.5 22:01:35 46° SE 22:02:48 54° E 22:08:35 10° NNE
USA 229 DEB 4.3 21:58:17 10° SW 22:05:00 59° NW 22:11:52 10° NNE
USA 229 4.2 21:58:24 10° SW 22:05:07 59° NW 22:11:59 10° NNE
MetOp-A 4.1 22:04:25 45° S 22:06:09 84° WSW 22:11:33 10° NNW
OAO 3 Rocket 4.4 22:03:50 10° W 22:07:40 28° SSW 22:07:40 28° SSW
CZ-4C R/B 3.7 22:02:23 10° NNW 22:08:55 37° NE 22:11:50 28° E
Nadezhda 2 Rocket 4.5 22:04:15 10° N 22:10:44 83° E 22:12:56 45° SSE
ASTEX 1 4.3 22:15:27 34° ENE 22:15:27 34° ENE 22:19:23 10° NNE
NOSS 3-1 (A) 3.3 22:15:18 55° ESE 22:15:21 55° ESE 22:21:30 10° NE
Cosmos 1782 Rocket 4.2 22:11:13 10° NNW 22:15:28 51° W 22:16:24 42° SW
SPOT 1/Viking Rocket 3.5 22:16:34 63° ESE 22:17:02 66° ENE 22:22:13 10° N
Cosmos 1777 Rocket 4.2 22:15:37 10° NNW 22:20:51 66° WSW 22:21:49 54° SSW
Cosmos 2219 Rocket 2.0 22:20:01 56° S 22:21:13 79° ESE 22:26:51 10° NNE
USA 245 4.1 22:21:27 58° S 22:22:32 80° WSW 22:27:26 10° NNW
Okean 1-7 4.1 22:21:00 29° SW 22:22:42 43° W 22:26:56 10° N
S3M 4.0 22:28:26 56° E 22:28:34 56° E 22:34:36 10° NNE
Landsat 7 4.2 22:29:26 51° NE 22:29:26 51° NE 22:33:31 10° N
Cosmos 1782 3.5 22:30:21 53° WNW 22:30:21 53° WNW 22:33:57 10° N
Okean 2 Rocket 3.7 22:26:12 10° NNW 22:30:33 50° W 22:30:55 48° WSW
Cosmos 1633 4.4 22:37:22 10° N 22:39:16 29° N 22:39:16 29° N
Terra 2.6 22:45:02 44° NNE 22:45:02 44° NNE 22:48:38 10° N
Meteor 1-27 Rocket 3.6 22:46:37 80° NE 22:46:37 80° NE 22:51:58 10° N
USA 234 3.9 22:59:28 40° SW 22:59:56 40° SW 23:06:02 10° WNW
Cosmos 1745 Rocket 3.9 22:56:32 10° N 23:02:51 85° ENE 23:02:51 85° ENE
Atlas Centaur 2 3.8 22:57:20 10° WSW 23:02:01 33° SW 23:02:01 33° SW
H-2A R/B 2.8 23:09:09 44° WNW 23:09:09 44° WNW 23:13:18 10° NNW
Cosmos 1980 4.0 23:13:33 62° WNW 23:13:33 62° WNW 23:19:03 10° NNE
Meteor 1-11 Rocket 4.0 23:08:46 10° NNW 23:13:39 60° WNW 23:13:39 60° WNW
NOSS 0 Rocket 4.4 23:16:17 47° WSW 23:17:33 55° WNW 23:23:37 10° NNE
SL-16 R/B 3.5 23:22:16 30° NE 23:22:16 30° NE 23:25:09 10° NNE
SeaSat 1 3.9 23:24:45 30° W 23:24:45 30° W 23:28:04 10° NW
H-2A R/B 4.1 23:31:01 26° NW 23:31:01 26° NW 23:33:14 10° NNW
Cosmos 2237 Rocket 3.2 23:40:20 40° WNW 23:40:39 40° WNW 23:46:01 10° N
Cosmos 2333 Rocket 3.9 23:41:57 23° W 23:44:09 29° WNW 23:49:07 10° N
Cosmos 2278 Rocket 3.4 23:41:37 10° NW 23:45:29 35° WNW 23:45:29 35° WNW
Cosmos 2315 Rocket 4.4 23:51:45 57° N 23:51:45 57° N 23:56:36 10° N
